Wind_Speed
53 54 52 46 51 52 53 52 52 49 47 44 40 46 43 40 41 41 38 34 35 35 37 39 42 44 46 45 47 46 45 45 45 46 49 47 49 50 47 44 44 44 44 44
51 52 48 50 50 51 52 54 54 53 50 50 49 48 48 47 44 39 40 37 34 29 29 34 38 40 40 43 46 50 48 49 47 46 46 51 50 49 48 46 45 45 45 46
47 48 43 44 45 46 48 51 53 57 54 53 56 58 56 53 49 45 42 43 42 41 37 36 39 42 44 45 48 48 50 52 53 50 52 50 49 48 48 47 48 50 51 51
47 44 43 47 49 48 52 48 54 56 61 64 62 65 63 62 60 55 51 47 45 42 37 39 37 38 42 47 49 50 50 50 53 52 51 53 52 51 50 52 53 55 55 56
51 50 50 50 50 52 53 55 56 60 61 65 71 71 68 67 66 66 64 54 52 52 52 50 47 44 43 45 49 52 55 57 57 56 56 56 56 55 51 54 59 59 59 59
53 54 57 55 54 54 55 56 58 60 62 64 65 64 61 65 69 68 67 66 63 58 54 47 46 49 47 48 48 51 53 55 59 63 64 64 58 58 58 58 60 61 62 61
59 60 59 56 57 58 55 59 64 67 68 70 69 70 71 74 70 69 64 62 61 55 53 51 53 49 53 53 57 57 55 56 58 61 64 67 63 61 60 61 62 63 63 61
69 69 64 64 63 63 63 61 61 65 68 72 69 79 81 74 71 70 62 58 61 59 60 60 57 57 54 56 54 55 57 55 57 57 62 68 73 66 64 64 63 61 57 54
69 75 73 72 71 72 72 74 67 73 75 78 81 83 80 78 74 69 63 63 64 66 67 67 66 65 58 57 61 65 62 58 56 58 59 62 68 73 67 63 59 55 53 54
75 79 79 79 78 81 78 76 76 77 76 80 84 86 87 84 81 76 72 67 68 69 69 66 68 72 65 64 66 68 60 59 58 62 61 63 69 64 55 54 51 49 49 51
76 79 83 85 86 78 77 81 82 73 73 80 78 81 94 90 87 85 72 60 61 61 63 70 72 72 70 69 71 76 76 67 69 65 60 60 59 49 47 48 49 50 53 54
77 76 83 83 81 85 80 74 69 64 70 71 74 79 81 72 66 67 68 59 60 66 66 69 72 74 73 74 74 66 65 63 64 66 62 63 66 59 57 56 53 55 55 54
77 79 79 83 87 82 77 76 70 70 70 77 82 83 67 64 64 62 61 66 67 68 70 76 75 75 76 73 71 70 63 65 63 60 65 65 69 65 61 60 60 59 58 60
72 71 75 76 75 79 80 76 75 74 77 69 60 67 68 66 68 66 64 64 65 65 72 77 78 77 82 76 78 70 67 68 70 68 64 61 72 74 72 67 65 63 63 67
67 72 70 72 72 71 71 73 72 74 68 79 80 82 75 76 75 75 75 65 67 66 72 74 74 80 90 91 77 69 71 72 74 73 70 66 70 73 71 69 70 74 75 78
70 72 72 73 70 68 72 71 71 69 73 83 86 81 79 80 82 76 71 72 65 65 70 79 75 75 81 88 83 80 76 66 67 65 67 73 74 77 80 80 79 79 80 79
72 71 71 78 70 73 78 73 72 73 74 79 83 85 93 94 91 94 92 82 77 79 87 86 81 74 72 76 82 73 75 85 85 73 61 60 63 72 79 85 83 80 73 83
71 71 75 81 76 82 78 77 79 80 80 81 83 84 85 86 85 86 87 89 90 90 89 82 83 76 77 71 75 72 69 78 81 81 72 63 61 66 71 75 66 61 62 63
72 74 78 80 81 84 81 79 78 80 82 83 83 83 83 84 82 80 83 83 81 81 80 81 80 81 83 79 77 75 72 66 71 67 65 65 69 73 77 78 72 68 71 62
72 74 75 76 79 82 80 78 77 79 80 80 80 81 83 84 85 79 81 80 76 71 72 73 72 75 78 78 77 77 76 72 77 71 62 63 67 67 71 74 75 65 71 73
70 71 72 73 75 78 75 71 71 73 76 77 79 82 84 86 87 84 83 84 84 84 76 70 71 73 76 80 77 76 82 86 87 71 62 64 64 63 66 67 65 67 67 62
65 67 66 68 70 74 71 72 71 74 76 78 81 81 83 84 84 84 82 83 83 84 85 91 91 84 80 75 79 72 73 72 76 86 80 66 64 59 55 60 60 59 60 59
60 59 63 64 67 65 65 67 69 70 74 75 77 77 80 81 80 81 82 81 82 84 85 86 88 96 98 99 102 93 93 88 75 76 71 69 71 67 55 58 60 63 65 69
54 54 60 62 59 62 63 64 66 66 67 69 70 71 72 74 75 78 79 79 79 81 82 84 86 88 91 96 96 95 99 100 98 96 91 87 78 77 69 64 66 68 71 76
52 55 54 59 58 57 58 59 59 61 62 63 65 66 68 69 70 72 75 77 78 79 80 82 83 83 85 89 94 96 91 94 98 100 101 100 99 90 85 89 83 81 75 66
50 52 51 54 53 54 56 54 58 59 59 62 63 63 64 68 72 75 76 76 77 78 78 80 81 82 83 84 87 89 91 91 92 97 96 98 101 105 104 97 83 78 76 71
Wind_Direction
278 280 285 290 282 282 284 285 285 288 288 280 280 284 287 286 284 290 293 290 286 283 280 280 278 275 275 275 276 276 274 271 269 270 270 269 270 270 269 267 265 263 264 266
280 279 285 284 283 284 284 282 284 284 284 281 286 286 285 287 290 294 293 296 288 285 278 282 280 281 278 275 273 274 273 270 269 269 270 268 268 271 272 270 267 265 266 267
272 279 284 281 281 282 281 282 284 283 283 282 286 287 286 287 291 293 292 285 282 286 285 280 279 277 276 276 273 271 270 271 272 271 270 268 268 269 270 268 264 263 263 264
282 282 281 283 282 281 282 280 280 281 282 283 281 282 286 291 295 293 291 289 285 283 281 285 272 269 270 270 272 276 274 270 269 270 269 268 267 266 265 265 262 264 266 269
287 283 281 280 279 279 282 279 277 277 277 284 282 283 290 295 294 295 296 298 292 286 287 283 278 277 271 270 267 268 270 272 271 269 267 265 266 265 261 261 263 263 266 268
284 284 282 280 280 280 278 278 277 278 279 277 280 283 287 288 289 290 296 298 295 290 286 280 273 269 269 274 274 270 269 269 270 271 271 270 269 265 260 259 260 261 263 264
281 281 281 280 280 280 279 279 279 278 274 280 281 276 279 285 289 290 292 292 290 288 284 278 272 264 273 269 270 274 272 269 268 268 269 269 266 265 260 259 259 259 260 259
282 278 277 278 277 278 279 278 275 278 282 281 276 275 279 282 285 289 290 289 288 287 285 282 275 268 271 274 272 273 273 275 278 273 272 272 269 264 259 257 258 257 254 252
276 278 279 279 280 282 280 276 279 278 277 276 275 278 280 283 285 283 282 283 283 286 284 284 281 279 278 275 276 276 276 274 268 264 265 267 269 266 260 257 254 250 247 247
280 278 276 276 279 278 284 288 285 284 285 286 289 286 283 280 277 274 280 283 284 284 284 275 275 276 276 273 271 271 267 266 258 259 263 259 258 262 263 254 248 245 242 242
281 282 277 279 278 287 286 284 286 288 286 289 287 287 284 287 285 285 290 281 280 274 268 269 273 268 269 268 269 268 268 267 265 262 255 257 258 248 242 245 245 242 241 244
281 281 282 281 280 281 282 284 286 279 285 286 280 273 289 290 287 283 283 274 267 263 264 265 271 264 265 265 265 266 265 263 261 262 252 248 250 245 242 244 239 239 239 243
278 277 280 282 281 284 283 281 278 279 278 276 278 281 286 281 278 276 270 270 268 264 264 273 264 259 262 260 262 264 262 249 251 251 254 255 249 243 240 240 242 250 256 258
277 275 275 277 278 276 275 276 278 279 280 278 272 280 282 276 274 272 271 262 269 274 260 253 256 259 260 265 262 269 268 254 251 247 246 247 249 242 238 239 243 248 251 256
273 275 274 274 276 275 272 273 273 275 274 263 270 271 267 267 270 272 272 269 271 271 264 256 269 265 261 264 262 263 261 251 248 243 250 247 242 243 248 249 249 252 256 260
275 274 274 274 275 275 274 274 277 272 269 268 269 270 272 272 269 267 268 267 265 265 263 269 273 267 265 262 267 259 261 247 250 256 256 254 251 244 243 247 252 258 268 272
274 276 277 275 276 274 272 278 276 275 272 273 272 271 270 273 276 275 272 267 266 268 275 277 273 265 262 265 268 268 261 257 256 262 260 258 260 258 255 254 254 264 265 265
274 275 274 277 275 274 278 276 275 276 276 276 275 275 276 276 275 277 278 277 278 277 276 273 269 262 260 263 267 269 264 259 265 266 267 258 260 261 256 256 253 258 261 262
271 272 274 275 276 276 276 279 280 279 279 280 280 280 280 280 280 280 281 280 280 277 275 271 267 263 258 262 258 265 267 259 265 259 255 253 254 255 252 253 252 256 258 256
272 273 274 276 278 279 280 280 280 280 278 278 277 276 277 277 277 278 277 275 276 279 278 272 266 262 257 258 264 258 259 267 267 263 262 260 255 258 265 265 262 261 256 256
276 275 276 278 277 277 280 281 280 279 280 278 281 281 281 280 280 278 275 274 272 269 267 267 262 260 259 259 259 258 258 257 258 255 251 256 255 257 258 264 266 268 268 264
276 277 278 276 275 278 281 282 282 281 281 282 281 282 282 281 281 281 279 277 275 273 267 263 264 263 266 260 260 261 261 259 257 256 255 258 250 247 251 257 259 263 264 261
277 278 278 278 280 282 281 280 281 280 280 281 281 280 280 280 280 279 277 276 275 274 272 270 266 261 264 268 266 261 261 264 260 257 261 254 250 249 252 257 254 258 265 268
279 280 280 280 280 281 281 280 280 281 284 284 283 283 283 283 283 282 281 279 278 276 274 272 270 268 265 266 263 265 266 266 266 265 263 262 249 247 243 255 261 266 269 272
285 286 287 280 283 285 285 287 289 287 287 287 286 285 285 285 284 284 282 281 280 278 277 276 273 269 266 265 265 266 264 263 264 264 262 265 263 256 255 262 268 265 270 265
290 288 289 292 290 291 291 291 290 292 291 290 289 289 290 291 289 288 287 286 284 281 279 277 275 273 270 267 265 266 266 265 262 262 262 262 263 264 265 265 260 257 257 253
Height
5798 5795 5796 5799 5791 5788 5786 5783 5781 5786 5788 5782 5782 5776 5781 5787 5787 5788 5790 5789 5787 5787 5787 5784 5781 5777 5774 5773 5772 5773 5772 5771 5770 5769 5771 5771 5772 5771 5770 5770 5769 5769 5769 5768
5789 5784 5787 5784 5783 5781 5778 5774 5772 5771 5773 5771 5769 5766 5769 5772 5778 5784 5782 5780 5776 5777 5777 5775 5770 5768 5765 5763 5763 5761 5761 5758 5758 5759 5760 5758 5759 5760 5761 5761 5761 5759 5758 5757
5775 5774 5774 5772 5771 5770 5768 5765 5765 5760 5761 5762 5756 5751 5757 5761 5768 5771 5773 5771 5769 5765 5764 5763 5760 5757 5755 5751 5748 5748 5747 5747 5747 5747 5745 5747 5747 5748 5749 5751 5749 5747 5744 5744
5764 5767 5762 5761 5760 5759 5756 5758 5755 5752 5748 5746 5747 5737 5743 5747 5751 5755 5758 5759 5756 5754 5749 5747 5747 5744 5742 5740 5738 5737 5735 5734 5733 5732 5733 5734 5734 5734 5737 5737 5734 5733 5733 5733
5753 5752 5753 5750 5748 5745 5746 5743 5742 5739 5735 5736 5732 5731 5731 5734 5733 5732 5732 5738 5739 5737 5735 5732 5729 5731 5729 5724 5723 5724 5724 5723 5719 5718 5719 5718 5719 5720 5721 5721 5720 5717 5719 5719
5740 5739 5737 5736 5736 5734 5731 5728 5723 5721 5722 5722 5721 5721 5720 5725 5719 5720 5724 5722 5721 5718 5717 5717 5716 5713 5711 5710 5709 5708 5707 5708 5707 5705 5703 5701 5704 5704 5704 5704 5703 5703 5703 5704
5722 5722 5724 5723 5720 5720 5718 5713 5706 5703 5702 5706 5707 5702 5717 5712 5718 5714 5711 5707 5699 5698 5699 5700 5699 5698 5693 5695 5695 5692 5692 5693 5693 5691 5688 5686 5687 5686 5686 5687 5686 5687 5688 5689
5701 5706 5708 5708 5706 5703 5700 5700 5695 5682 5685 5685 5685 5678 5696 5705 5705 5704 5699 5694 5685 5682 5680 5678 5679 5680 5681 5679 5677 5675 5674 5675 5676 5678 5677 5674 5670 5669 5669 5669 5670 5670 5672 5674
5686 5690 5688 5687 5685 5685 5684 5677 5683 5668 5666 5658 5665 5665 5672 5692 5690 5689 5683 5675 5668 5662 5658 5658 5657 5655 5664 5665 5662 5657 5654 5654 5655 5656 5656 5655 5654 5652 5651 5651 5652 5652 5654 5657
5670 5664 5673 5671 5672 5667 5660 5664 5656 5648 5635 5630 5629 5640 5648 5665 5665 5667 5662 5654 5652 5648 5643 5636 5635 5636 5643 5643 5640 5639 5636 5635 5635 5634 5634 5634 5633 5632 5634 5636 5638 5639 5640 5642
5651 5646 5660 5647 5656 5658 5645 5638 5637 5632 5626 5610 5603 5603 5635 5635 5640 5638 5640 5633 5629 5623 5620 5615 5616 5611 5615 5620 5619 5617 5615 5613 5613 5613 5614 5618 5618 5617 5619 5621 5623 5624 5625 5627
5635 5624 5622 5634 5637 5632 5626 5622 5620 5609 5602 5598 5586 5578 5608 5609 5611 5610 5613 5615 5604 5594 5594 5595 5598 5598 5596 5597 5596 5594 5595 5595 5595 5594 5594 5596 5600 5601 5603 5605 5607 5607 5608 5609
5618 5606 5603 5604 5615 5613 5605 5602 5597 5595 5585 5574 5569 5565 5588 5585 5583 5586 5587 5583 5584 5581 5579 5576 5576 5577 5575 5576 5577 5576 5573 5574 5574 5575 5577 5580 5583 5585 5586 5588 5589 5589 5591 5592
5597 5591 5589 5586 5587 5591 5585 5581 5583 5577 5565 5559 5556 5550 5557 5557 5555 5558 5562 5559 5559 5564 5563 5560 5559 5559 5558 5558 5557 5558 5560 5560 5559 5557 5559 5566 5568 5565 5564 5563 5566 5569 5570 5572
5577 5570 5571 5570 5569 5564 5561 5561 5562 5558 5555 5543 5544 5537 5534 5530 5539 5538 5538 5539 5538 5541 5542 5540 5542 5539 5535 5533 5537 5536 5538 5539 5540 5542 5542 5545 5546 5547 5549 5550 5551 5550 5552 5554
5555 5551 5548 5546 5553 5546 5533 5541 5544 5542 5539 5528 5523 5520 5511 5513 5517 5516 5516 5517 5516 5516 5517 5520 5519 5516 5514 5510 5511 5517 5517 5516 5520 5520 5522 5525 5528 5528 5529 5530 5532 5535 5535 5535
5536 5534 5530 5515 5533 5520 5514 5530 5522 5516 5513 5507 5503 5498 5491 5493 5490 5490 5493 5495 5494 5494 5492 5493 5494 5495 5495 5492 5488 5492 5495 5494 5495 5499 5502 5504 5505 5508 5510 5511 5514 5518 5518 5516
5514 5517 5509 5496 5505 5492 5509 5502 5497 5494 5492 5489 5482 5474 5468 5467 5472 5469 5463 5464 5465 5465 5465 5466 5466 5471 5471 5471 5468 5468 5471 5471 5471 5476 5479 5483 5486 5489 5489 5491 5494 5496 5497 5497
5499 5496 5486 5480 5477 5474 5483 5483 5478 5470 5467 5461 5456 5450 5447 5444 5447 5448 5440 5437 5438 5438 5439 5440 5440 5442 5446 5447 5448 5446 5447 5449 5450 5455 5459 5462 5465 5468 5470 5473 5474 5476 5478 5481
5484 5478 5469 5465 5457 5449 5459 5458 5456 5445 5439 5438 5433 5429 5426 5422 5420 5433 5420 5416 5415 5413 5411 5412 5413 5413 5416 5420 5422 5424 5424 5424 5429 5431 5434 5437 5441 5445 5446 5449 5451 5452 5457 5461
5463 5454 5449 5446 5436 5432 5437 5438 5433 5424 5421 5415 5410 5405 5399 5396 5395 5400 5399 5395 5392 5393 5392 5389 5390 5391 5391 5391 5392 5397 5399 5403 5404 5406 5411 5415 5417 5421 5424 5428 5429 5431 5436 5440
5441 5437 5436 5429 5421 5416 5422 5417 5412 5405 5396 5394 5389 5384 5378 5374 5372 5369 5371 5367 5365 5363 5363 5363 5364 5363 5367 5364 5368 5372 5372 5372 5376 5379 5385 5390 5392 5395 5400 5407 5411 5413 5416 5421
5420 5422 5412 5410 5405 5406 5403 5393 5394 5383 5373 5377 5369 5367 5355 5352 5349 5345 5342 5342 5339 5335 5335 5333 5334 5337 5341 5338 5337 5341 5343 5346 5347 5351 5356 5362 5367 5371 5375 5383 5388 5393 5397 5402
5408 5406 5396 5392 5399 5385 5380 5379 5371 5366 5360 5357 5350 5343 5335 5328 5327 5320 5316 5316 5312 5309 5307 5305 5304 5306 5308 5306 5311 5311 5313 5316 5321 5325 5329 5332 5337 5345 5351 5357 5363 5369 5373 5377
5395 5387 5382 5373 5377 5366 5365 5361 5353 5348 5343 5337 5330 5323 5316 5308 5305 5296 5294 5291 5286 5284 5281 5275 5274 5275 5278 5276 5276 5276 5279 5283 5289 5295 5301 5306 5312 5318 5324 5330 5338 5345 5350 5355
5375 5370 5362 5356 5358 5349 5347 5342 5336 5329 5324 5316 5310 5306 5300 5291 5284 5276 5272 5267 5261 5257 5254 5249 5245 5242 5245 5244 5245 5244 5243 5246 5254 5262 5267 5273 5281 5287 5295 5303 5310 5319 5326 5332